GFSFLT2_925_temp_000.txt.gz
Temp
18 18 18 18 18 18 18 18 18 18 19 18 18 18 18 18 18 18 18 18 18 18 18 18 18 18 18 18 17 18 18 18
18 18 17 17 17 18 18 18 18 18 18 18 18 18 17 17 18 18 17 18 18 18 18 18 18 18 18 18 18 18 18 18
18 18 17 18 18 18 18 18 18 18 18 18 18 18 18 18 17 17 17 17 17 17 17 17 17 18 18 18 18 18 18 18
18 18 18 18 18 18 19 19 18 18 18 18 18 18 18 18 18 18 18 18 17 17 17 17 17 17 17 17 17 17 17 17
18 18 18 19 19 19 19 18 18 18 18 18 18 18 18 18 18 18 18 18 18 18 18 18 18 17 17 17 17 17 17 17
19 20 19 19 19 19 19 19 18 18 18 18 18 18 18 18 18 18 18 18 18 18 18 18 18 17 17 17 16 16 16 16
19 19 20 19 19 19 19 18 18 18 18 18 18 17 17 18 18 18 18 17 17 17 17 17 17 17 16 16 16 15 15 16
19 19 17 17 17 17 17 17 18 18 18 18 17 17 18 18 18 17 17 17 16 16 16 16 15 15 15 15 15 15 15 15
18 18 17 17 17 17 15 15 16 17 17 17 16 17 17 17 17 16 16 16 16 15 15 14 14 14 14 14 14 14 14 14
17 17 18 18 17 16 15 14 16 14 15 16 16 17 16 16 16 16 15 15 14 14 13 13 13 12 12 12 13 13 13 13
16 17 18 16 16 14 14 15 15 15 16 16 17 17 16 16 16 15 14 14 13 13 12 11 11 11 11 12 12 12 12 11
16 17 17 16 15 14 15 16 16 16 17 16 16 16 16 15 14 14 13 13 13 12 11 11 10 9 10 10 11 11 10 10
15 15 14 15 15 16 16 16 16 15 15 14 14 14 14 13 13 13 12 12 10 10 10 9 9 8 9 9 10 10 10 8
16 16 16 17 18 18 17 16 15 14 13 13 12 12 12 12 11 11 11 11 10 9 8 8 8 7 6 6 5 7 8 8
17 17 17 17 17 17 17 16 15 13 12 12 11 11 11 11 11 10 10 10 9 8 7 7 6 6 5 5 3 3 3 6
17 17 17 17 17 17 16 15 14 12 11 10 10 10 10 10 11 10 9 8 8 7 6 6 5 4 5 4 4 3 2 2
16 16 16 15 15 15 14 13 12 11 10 11 12 12 11 10 10 9 9 8 7 6 5 5 5 4 3 2 2 2 3 1
16 15 14 14 13 13 12 12 11 11 12 12 11 11 11 10 8 8 7 6 5 5 4 4 4 3 3 2 2 1 0 1
14 13 12 12 11 11 11 11 11 10 10 9 9 10 10 9 7 6 5 5 4 4 4 4 3 3 3 2 2 1 1 0
12 11 10 10 10 10 9 9 9 9 8 8 8 9 9 8 6 5 4 4 5 4 4 4 3 3 3 2 2 1 1 1

GFSFLT2_925_temp_003.txt.gz
Temp
17 17 18 18 17 18 17 18 18 18 18 18 18 18 18 18 17 17 17 17 18 18 18 18 18 18 18 18 18 18 18 18
17 17 18 17 17 17 17 17 18 18 18 18 18 18 18 18 18 18 18 18 18 18 18 18 18 18 18 18 18 18 18 17
17 17 17 17 17 17 17 17 18 18 18 18 18 18 18 18 17 17 18 18 18 18 18 17 17 17 17 17 17 17 17 17
17 17 17 17 16 16 17 17 17 18 18 18 18 18 18 17 17 17 17 18 18 18 18 18 17 17 17 17 17 17 16 16
16 17 16 16 16 16 17 17 17 17 18 18 18 17 17 18 18 18 18 17 17 17 18 17 17 16 16 17 16 16 15 16
16 16 17 17 17 17 17 17 17 17 17 17 17 17 17 18 18 18 17 17 17 17 17 17 17 16 16 16 16 15 14 15
17 16 17 17 17 17 17 16 16 16 16 16 17 17 17 17 17 17 17 17 17 17 17 16 16 16 15 15 15 15 15 14
16 16 16 17 17 18 18 18 16 16 18 17 16 16 16 17 17 17 17 17 16 16 16 15 15 15 14 14 14 13 13 14
16 16 17 18 18 19 19 18 17 15 15 15 16 15 16 17 17 17 17 16 15 15 15 14 14 13 13 13 13 13 12 13
16 17 18 18 17 17 19 18 17 15 15 15 15 16 17 17 17 16 15 15 14 14 13 12 12 12 12 12 11 11 11 11
15 17 18 18 18 16 15 16 16 16 15 15 16 16 16 15 15 14 13 13 13 12 11 10 10 10 11 11 11 11 10 10
16 17 18 17 15 15 16 17 16 15 15 15 15 15 14 14 13 12 12 12 11 10 10 9 9 8 10 10 10 10 9 9
17 17 17 16 16 16 17 16 15 15 15 15 14 13 13 12 12 11 11 11 11 11 10 9 9 7 9 10 10 9 8 8
17 17 16 16 16 16 16 16 15 14 14 13 12 12 11 11 11 11 10 10 9 9 9 9 8 6 8 9 11 11 9 8
16 16 16 16 16 16 16 15 14 13 12 11 11 11 11 11 11 10 10 10 9 8 7 7 8 6 5 7 9 9 7 7
16 15 15 15 15 15 14 13 12 11 11 11 11 11 11 11 10 10 9 8 7 6 6 5 6 6 5 5 4 5 6 6
15 15 14 13 13 13 13 12 12 12 11 11 10 10 10 10 10 9 8 7 6 5 5 5 4 5 4 4 4 4 4 4
14 14 12 12 12 11 11 10 9 9 9 9 9 10 10 10 9 8 7 6 5 5 5 4 4 3 3 3 3 3 3 3
11 11 10 10 10 10 10 10 9 9 9 8 8 8 8 8 8 7 5 5 5 4 4 4 3 3 3 3 2 2 2 2
10 9 9 10 10 10 10 10 9 9 8 7 7 6 6 7 6 5 4 4 4 3 3 3 3 3 2 1 1 2 1 1

GFSFLT2_925_temp_006.txt.gz
Temp
18 18 18 18 17 17 17 17 17 17 17 17 18 18 18 18 18 17 18 18 18 18 18 17 17 18 18 18 18 18 19 19
18 18 18 18 18 18 17 17 17 17 17 17 18 18 18 18 18 18 18 18 18 18 18 18 18 17 17 17 18 19 19 19
19 19 18 18 18 17 17 17 17 17 17 17 18 18 18 18 18 18 18 18 18 18 18 18 18 18 17 17 18 19 19 19
18 18 17 17 18 18 17 17 18 18 18 17 18 17 17 17 18 18 18 18 18 18 18 18 18 19 19 18 19 18 19 18
16 17 17 18 18 18 18 18 18 18 17 17 17 17 17 18 18 18 18 18 18 18 18 18 17 17 17 17 17 18 18 18
17 18 17 17 18 19 18 18 18 18 17 17 16 16 17 17 18 18 17 18 17 17 18 17 16 16 16 16 16 16 17 17
18 17 17 17 18 18 18 18 18 17 17 16 17 17 16 16 17 17 17 17 17 17 17 17 17 17 16 16 15 15 15 16
17 17 17 18 18 17 17 16 16 17 15 16 16 17 17 15 16 17 17 17 17 17 17 17 16 16 16 15 15 15 15 15
18 17 17 17 17 17 16 15 17 17 17 16 17 16 16 15 16 16 16 16 16 15 15 15 15 15 15 15 15 15 14 14
18 17 17 18 19 18 18 17 17 14 14 14 14 15 15 15 15 15 15 14 14 14 14 15 15 14 14 14 14 14 14 13
18 17 18 19 18 19 17 17 14 14 15 14 15 15 15 14 13 13 13 14 13 13 14 13 13 13 13 14 14 14 14 14
17 18 18 17 17 16 16 16 15 15 14 14 13 13 13 14 13 12 13 13 13 13 12 12 12 12 12 13 13 13 13 13
18 17 17 18 18 18 17 17 16 15 14 12 12 12 12 12 13 13 12 13 12 11 12 12 12 11 11 13 13 13 13 12
18 18 18 18 18 17 17 17 15 14 13 12 12 12 12 13 12 12 12 12 12 11 10 11 12 10 9 10 13 13 13 12
18 18 18 17 16 16 15 15 15 15 14 14 12 12 12 12 12 11 11 11 11 10 10 9 10 10 9 8 10 11 10 10
18 17 16 14 15 15 15 16 16 13 13 13 12 11 11 11 11 11 10 10 10 10 9 8 8 9 8 8 8 7 9 8
16 15 14 14 14 14 15 14 13 13 12 12 12 12 11 11 11 10 10 10 9 8 7 7 7 7 7 7 7 7 6 7
15 14 14 13 13 12 12 12 12 12 11 11 11 11 11 11 10 9 9 9 8 7 6 6 6 6 6 5 6 6 6 6
14 14 13 12 12 12 11 11 11 11 10 10 9 10 9 9 8 8 8 8 6 5 5 5 5 5 5 5 5 5 4 4
14 14 13 12 11 11 11 10 10 10 9 8 8 8 8 7 7 7 7 6 5 4 5 5 5 5 4 4 4 4 4 4

GFSFLT2_925_temp_009.txt.gz
Temp
18 18 18 18 18 17 17 17 18 18 18 18 18 18 18 18 18 18 18 18 18 18 18 18 18 18 18 18 19 19 19 21
19 19 18 17 17 17 17 17 18 18 18 18 18 18 18 18 18 18 18 18 18 18 18 18 18 18 18 19 19 20 20 21
19 19 19 18 17 18 18 18 18 18 18 18 19 19 19 19 18 18 18 18 18 18 18 18 19 19 18 19 19 20 20 20
19 19 18 19 20 19 19 19 20 19 19 19 20 19 19 19 19 19 19 18 18 18 18 19 19 20 20 20 19 19 20 20
19 19 19 20 20 20 20 20 19 19 19 20 18 19 18 19 19 20 20 19 19 19 19 19 18 18 18 18 18 18 19 19
20 20 20 19 20 21 21 20 20 20 19 19 18 19 18 18 19 19 19 20 19 19 19 18 18 18 18 17 17 17 17 17
21 20 19 19 20 20 20 19 19 18 18 18 18 18 17 18 18 18 17 19 19 19 19 19 18 18 17 17 16 16 16 16
20 19 19 20 20 19 19 18 18 18 18 17 17 17 16 16 16 17 18 18 18 18 17 17 16 17 16 17 16 16 16 16
20 19 20 19 19 19 18 17 17 18 18 16 16 16 16 16 16 16 17 16 16 16 16 16 16 16 16 16 16 16 16 16
20 19 19 19 18 18 18 17 17 16 15 15 14 14 15 15 15 15 14 14 15 15 15 15 15 15 16 15 15 15 15 15
20 19 19 17 18 17 17 17 16 16 15 15 15 15 15 15 15 15 14 15 15 15 15 14 14 14 14 14 14 14 15 15
20 19 19 18 20 18 17 18 17 17 17 16 16 16 15 15 16 14 14 15 15 14 13 13 14 14 14 13 13 14 14 14
20 20 19 20 20 20 19 19 18 17 16 15 15 14 14 14 15 15 14 14 14 13 13 13 13 13 13 12 12 12 14 14
20 20 20 20 20 20 20 19 18 17 16 14 14 14 14 14 14 13 13 13 13 13 13 12 12 12 12 12 12 12 12 11
21 20 20 20 19 18 18 17 17 18 17 16 15 13 13 13 13 13 12 12 12 12 12 11 11 11 11 11 11 10 10 10
21 20 19 17 18 18 18 18 18 16 15 15 14 14 13 13 13 12 12 11 11 11 12 10 9 10 10 10 9 9 9 9
20 19 18 17 17 17 17 16 16 15 14 13 13 13 12 12 12 11 11 11 11 10 10 9 9 8 8 8 8 8 8 8
18 18 17 16 15 15 14 14 14 14 13 13 12 12 11 11 10 10 10 10 10 10 9 8 7 6 7 7 7 7 7 7
17 17 16 15 14 14 13 13 12 13 12 11 11 11 10 10 9 9 9 10 9 8 7 5 5 6 6 6 6 6 6 6
17 17 16 14 14 13 12 12 12 12 11 10 10 10 9 9 9 8 9 8 7 6 5 5 5 5 6 5 5 5 5 5

GFSFLT2_925_temp_012.txt.gz
Temp
17 16 17 17 18 18 18 18 19 19 18 19 18 18 18 18 18 18 18 18 18 18 18 18 19 18 18 20 20 19 20 19
16 17 16 17 17 18 18 19 18 18 19 19 19 19 19 18 18 18 18 18 18 18 18 19 19 19 18 19 19 19 20 19
17 17 17 18 18 18 18 19 19 19 19 19 19 19 19 18 18 19 19 19 19 19 19 19 19 19 18 19 19 18 19 19
18 18 18 18 18 18 19 19 19 19 19 19 19 19 19 19 19 19 19 19 19 19 19 19 18 18 18 18 18 18 18 18
18 19 19 19 19 19 19 19 19 19 19 19 19 19 19 19 19 18 19 19 19 19 19 19 19 18 18 17 17 17 17 17
19 19 20 20 21 21 20 20 20 19 19 19 19 19 18 18 18 18 18 19 19 19 19 18 18 18 17 17 17 16 16 16
20 20 20 20 21 20 20 19 19 19 18 18 18 18 17 17 17 17 18 18 18 18 17 17 17 17 16 16 16 16 16 16
20 19 20 20 20 19 19 19 18 19 18 17 17 17 17 16 17 17 17 18 16 16 16 16 16 16 16 16 16 16 16 16
20 19 20 19 19 19 19 19 18 18 17 17 16 17 17 16 16 16 16 16 16 16 15 15 15 15 15 15 15 15 15 15
20 20 19 19 19 18 18 17 17 16 16 16 16 16 16 16 16 15 15 15 15 15 15 14 14 14 14 14 15 14 14 14
20 19 19 19 18 18 17 16 16 17 16 16 16 15 15 16 16 15 15 15 15 15 14 13 13 13 14 14 13 13 13 13
20 19 18 18 18 18 17 17 17 17 17 16 16 15 15 15 15 15 14 15 14 13 13 13 13 13 12 12 13 12 12 12
20 19 18 19 19 19 18 18 18 16 15 15 15 15 15 14 14 14 14 13 13 13 13 12 12 12 12 11 12 11 11 12
20 20 19 20 21 20 20 18 17 17 15 15 14 14 14 14 13 13 13 12 12 12 12 12 11 11 10 10 8 10 11 9
21 20 20 21 20 18 18 18 17 17 16 15 14 14 14 13 13 13 12 12 12 11 11 11 10 10 10 10 7 6 8 8
21 21 20 19 19 19 18 18 16 16 15 14 14 13 13 12 12 12 11 11 11 11 11 10 10 9 9 8 8 7 5 6
21 20 19 18 18 17 17 16 16 15 14 13 13 12 12 12 11 10 10 10 10 10 10 9 8 7 6 7 7 7 7 6
19 19 18 17 16 16 15 15 14 13 13 12 12 12 11 11 10 9 9 9 10 9 8 7 6 6 5 6 6 6 6 5
18 18 17 16 14 14 13 13 13 12 12 11 11 11 10 10 9 9 8 9 8 8 7 6 6 5 5 5 6 5 5 5
18 17 16 15 14 14 13 13 13 12 11 10 10 10 9 9 9 8 8 8 8 7 6 6 5 5 5 5 5 4 5 5

GFSFLT2_925_temp_015.txt.gz
Temp
15 16 15 16 17 18 18 19 19 19 19 19 19 19 19 19 19 19 19 19 19 19 19 19 19 18 19 19 18 19 18 18
15 16 15 16 17 18 18 19 19 19 19 19 19 19 19 19 19 19 19 19 19 19 19 19 18 18 18 17 18 19 18 17
17 17 16 17 18 18 19 19 20 19 19 19 19 18 18 19 19 19 19 19 19 19 19 18 18 18 18 18 18 18 17 17
17 17 16 17 18 19 19 19 19 19 19 19 18 18 18 19 18 18 18 18 18 19 18 18 18 18 18 17 17 17 17 16
17 18 18 19 19 19 19 19 19 19 18 19 18 18 18 18 18 17 18 18 18 17 18 17 17 17 17 17 16 16 16 16
19 18 19 19 19 19 19 19 19 19 18 19 19 19 18 18 18 18 18 18 18 18 17 17 17 16 16 16 16 16 16 16
19 19 19 19 19 19 19 19 18 18 18 18 18 18 18 17 17 17 17 17 17 17 17 16 16 16 16 15 15 15 15 15
19 20 20 19 19 20 19 18 19 19 18 18 17 17 17 17 16 16 16 16 16 16 16 15 15 15 15 15 15 14 15 15
20 20 20 20 20 19 19 18 19 18 17 17 16 16 16 16 16 16 16 15 15 15 15 14 14 14 14 14 14 14 14 14
19 19 19 19 19 19 18 17 17 17 17 16 16 16 16 16 16 16 15 15 15 15 14 14 13 13 13 13 13 13 13 13
19 19 19 19 18 18 17 17 17 17 16 16 16 16 16 15 15 15 15 14 14 13 13 13 13 12 12 12 12 12 12 11
19 19 19 18 18 17 17 17 16 16 16 15 15 15 15 15 14 14 13 13 13 13 12 12 12 12 11 11 11 11 11 10
19 19 19 18 17 17 17 16 16 16 16 15 15 14 14 14 14 14 13 13 12 12 12 11 11 11 11 10 10 11 10 9
19 19 19 18 18 18 17 17 17 16 15 14 14 14 14 13 13 12 12 12 12 11 11 11 11 10 10 9 6 8 8 8
19 19 19 19 18 18 17 17 16 15 14 14 13 13 13 13 12 12 12 11 11 10 10 10 10 9 9 8 4 4 5 7
19 20 19 18 19 18 17 16 15 14 14 13 13 13 13 12 12 11 11 10 10 10 10 9 9 7 8 7 6 6 3 2
20 19 19 19 18 18 17 16 14 14 14 14 13 13 12 11 11 10 10 9 9 9 8 8 7 7 6 6 6 6 6 4
19 19 18 18 17 17 16 15 14 14 13 13 12 11 11 10 10 9 8 8 8 8 7 7 6 6 5 5 5 5 5 4
18 18 17 17 16 16 15 15 15 14 13 12 11 11 10 10 9 8 8 8 8 7 7 6 6 5 5 5 5 5 5 5
18 17 15 15 15 15 14 14 14 13 12 11 10 10 9 9 8 8 8 7 7 7 7 6 6 5 5 5 5 4 4 4

GFSFLT2_925_temp_018.txt.gz
Temp
14 14 14 15 16 18 19 19 19 19 19 19 19 19 19 18 19 19 19 19 19 19 18 18 19 19 18 18 18 18 17 17
13 15 15 16 17 18 19 19 19 19 19 19 19 19 19 19 19 19 19 19 19 19 18 18 18 18 18 18 17 17 17 16
15 16 16 16 16 18 19 19 19 18 18 19 18 18 18 18 18 18 18 18 18 18 18 18 18 18 17 17 17 17 16 16
15 17 16 17 18 18 18 18 19 19 18 18 18 18 18 18 18 18 18 18 18 17 17 17 17 17 17 17 16 16 16 16
15 17 17 17 18 18 18 18 18 18 18 18 18 18 17 17 17 18 18 18 17 17 17 17 17 17 16 16 16 16 15 15
17 17 17 18 18 18 18 18 18 18 18 18 18 17 17 17 17 17 17 17 17 17 17 16 16 16 15 15 15 15 15 15
18 17 17 18 18 18 18 18 18 18 18 18 18 18 18 17 17 17 16 16 16 16 16 15 15 15 15 15 14 14 14 14
18 18 18 18 18 18 18 18 18 18 18 18 17 17 17 17 17 16 16 16 15 15 15 15 14 14 14 14 13 13 13 13
18 18 18 19 18 18 18 18 18 18 17 17 17 17 16 16 16 16 15 15 15 14 14 14 14 13 13 13 13 12 12 12
18 19 18 18 18 18 18 18 18 17 17 16 16 16 16 16 16 15 15 15 14 14 14 13 13 12 12 12 12 12 11 11
19 19 19 19 18 18 18 17 17 16 16 16 16 16 15 15 15 14 14 14 13 13 13 12 12 12 11 11 12 11 10 10
18 18 18 18 18 17 16 16 16 16 16 15 15 15 15 15 14 14 13 13 13 12 12 12 11 11 11 11 11 10 9 9
18 18 18 18 17 16 16 16 15 15 15 15 15 15 15 14 14 14 13 13 12 12 11 11 11 10 10 10 10 9 8 8
18 18 18 18 18 17 17 16 15 16 15 14 14 14 14 14 14 13 12 12 11 11 10 10 10 9 9 7 4 7 8 7
18 18 18 18 17 17 16 16 15 14 14 14 14 14 14 14 13 12 11 11 10 10 9 9 9 7 8 8 4 3 4 6
19 19 18 18 17 17 16 15 14 14 14 13 13 13 13 12 12 11 10 10 9 9 9 9 8 7 6 6 6 6 2 2
19 18 18 18 17 17 17 16 15 14 13 13 13 12 12 11 11 10 9 9 8 8 8 7 7 6 6 6 6 5 5 2
17 18 18 18 18 17 17 16 14 13 13 13 12 11 11 10 10 9 8 8 8 7 7 7 6 6 5 5 5 5 4 3
17 18 17 17 17 17 16 15 14 14 13 13 11 10 9 9 9 8 8 7 7 7 7 6 6 5 5 5 5 4 4 4
17 18 17 16 16 16 15 14 14 13 13 11 10 10 9 8 8 8 7 7 7 7 7 6 6 5 5 5 4 4 4 3

GFSFLT2_925_temp_021.txt.gz
Temp
14 14 14 15 17 18 18 18 19 19 18 18 18 18 18 19 19 19 19 19 18 18 18 18 18 18 18 18 18 18 17 16
14 13 14 14 16 17 19 20 19 18 18 18 18 18 18 19 18 19 18 18 18 18 18 18 18 17 17 17 17 17 16 16
13 14 15 15 17 18 18 18 18 18 18 18 18 18 18 18 18 18 18 18 18 17 18 17 17 17 17 16 16 16 16 15
14 15 15 16 17 18 18 18 17 18 18 18 17 17 17 18 18 18 18 18 18 17 17 17 17 17 16 16 16 15 15 15
15 15 16 16 17 17 18 18 17 18 18 17 17 17 17 17 17 18 17 17 17 17 17 17 17 16 15 15 15 15 15 15
15 16 16 16 16 17 17 17 17 17 18 18 18 18 17 17 17 17 17 17 17 16 16 16 15 15 15 15 14 14 14 14
15 16 16 16 17 17 18 18 17 18 17 18 18 17 17 17 17 17 16 16 16 16 16 15 15 14 14 14 13 13 13 13
17 17 16 16 17 17 17 17 18 18 18 17 17 17 17 17 16 16 16 16 15 15 15 14 14 13 13 13 12 12 12 12
17 17 17 17 18 17 17 17 17 18 17 17 16 17 17 16 16 15 15 15 14 14 13 13 13 13 12 12 12 11 11 11
18 17 17 17 17 18 18 17 17 17 17 16 16 16 16 16 16 15 15 14 14 14 13 13 12 12 12 11 11 10 10 10
18 17 17 17 17 17 17 17 17 17 16 16 16 15 15 16 15 14 14 14 13 13 12 12 11 11 11 11 10 10 9 9
18 18 18 17 17 17 16 16 16 16 15 15 15 15 15 15 15 14 14 13 12 12 12 11 11 10 10 10 9 9 8 8
18 18 17 17 16 16 16 16 15 15 15 15 15 15 15 15 15 13 13 12 12 11 11 11 10 10 10 9 8 8 7 7
18 18 17 17 17 17 17 16 15 15 15 14 15 15 14 14 14 13 13 12 12 11 10 10 9 9 9 7 4 6 7 7
18 18 17 17 17 17 16 15 14 14 14 14 14 14 14 13 13 12 12 11 11 10 9 9 9 7 8 8 3 3 3 6
18 18 17 17 17 17 16 15 13 13 13 13 13 13 12 12 12 11 11 11 10 9 9 9 8 7 6 7 7 6 2 2
17 17 17 17 17 17 16 14 14 14 13 13 12 12 11 11 11 10 10 10 9 8 8 7 7 7 6 6 5 5 4 2
16 16 16 17 17 17 16 15 14 14 13 13 12 11 11 10 9 9 8 8 8 8 7 7 7 6 6 5 5 4 4 3
16 16 16 17 16 16 16 15 14 14 13 12 11 10 9 9 9 9 8 7 7 7 7 6 6 6 5 5 5 4 4 3
16 16 16 16 16 16 16 15 14 13 13 12 11 10 9 9 8 7 7 7 6 6 6 5 5 5 5 5 5 4 3 3

GFSFLT2_925_temp_024.txt.gz
Temp
15 15 13 15 18 18 17 19 17 17 17 18 18 18 19 18 18 18 18 18 18 18 18 18 18 18 17 17 17 17 16 16
15 15 13 14 16 16 17 17 17 17 18 18 18 18 18 18 18 18 18 18 18 18 17 17 17 17 17 17 16 16 16 15
12 13 13 14 16 17 17 16 17 18 18 18 18 18 18 18 18 18 17 17 18 17 17 17 17 16 16 16 16 16 15 15
14 14 12 14 15 15 16 18 18 18 18 18 18 18 18 18 17 17 17 17 17 17 17 17 16 16 16 15 15 15 15 15
12 12 13 15 16 17 19 19 18 17 17 17 17 17 18 17 17 17 17 17 17 17 17 17 16 15 15 15 14 14 14 14
14 15 15 16 15 16 17 18 17 17 17 17 17 17 17 17 17 17 17 17 17 16 16 16 15 15 14 14 14 13 13 13
14 15 15 15 16 17 17 17 17 18 17 17 17 17 17 17 17 16 16 16 16 16 15 15 14 14 13 13 13 13 12 12
15 16 15 15 16 17 17 17 17 17 17 17 16 17 17 17 16 16 16 16 15 15 14 14 14 13 13 12 12 12 12 12
15 16 15 16 16 17 17 17 17 17 17 16 16 16 16 16 16 16 16 15 15 14 14 13 13 12 12 11 11 11 11 11
16 15 16 16 16 17 17 17 17 17 16 16 16 16 16 16 16 16 15 15 14 13 13 13 12 12 11 11 10 10 10 10
16 16 16 16 16 17 17 16 17 16 16 16 16 16 15 16 16 15 14 14 13 13 12 12 11 11 10 9 9 9 9 9
17 17 17 17 16 16 16 16 16 16 16 15 15 15 15 15 15 14 13 13 13 12 11 11 10 10 9 9 8 8 7 8
17 17 17 17 16 15 15 16 15 15 15 15 15 15 15 14 14 13 13 12 11 11 11 10 9 9 8 7 7 7 7 7
17 17 17 17 16 16 15 16 15 15 15 14 14 14 14 13 13 12 12 11 11 10 10 9 8 8 8 7 4 5 6 6
17 18 17 16 16 16 16 15 14 14 14 14 13 13 13 13 12 12 11 11 10 10 9 9 8 7 8 7 4 4 3 5
17 17 17 16 16 16 16 15 13 14 14 14 13 12 12 12 12 11 11 10 10 9 9 9 8 7 7 7 6 6 3 2
17 17 16 16 16 16 16 15 15 14 13 13 12 12 11 11 11 10 10 10 10 9 8 8 7 7 6 6 6 5 4 2
16 16 16 16 16 16 16 16 14 14 12 12 11 11 11 10 10 10 10 9 8 8 7 7 7 6 6 6 5 5 4 2
16 16 15 15 15 15 15 15 15 15 13 12 11 10 10 10 9 9 9 8 7 7 7 6 6 6 6 5 5 5 4 3
15 15 15 15 15 15 14 14 15 14 13 13 12 11 10 10 10 10 8 8 8 7 6 6 6 5 5 5 5 4 4 3

GFSFLT2_925_temp_027.txt.gz
Temp
15 15 14 14 17 17 17 17 17 18 18 18 19 18 18 18 18 17 17 18 18 18 18 18 17 17 17 17 16 16 15 15
14 14 13 13 16 16 16 17 17 18 18 18 18 18 18 18 18 18 17 17 17 17 17 17 17 17 16 16 16 16 15 14
12 12 14 15 15 16 16 17 17 17 17 18 18 17 17 17 17 17 17 17 17 17 17 17 16 16 16 16 16 15 15 14
12 12 13 14 15 16 16 16 18 18 18 18 17 17 17 17 17 17 17 17 17 17 16 16 16 16 15 15 15 15 15 14
12 12 13 13 14 16 17 18 17 17 17 17 17 17 17 17 17 17 17 17 17 16 16 16 15 15 15 14 14 14 14 14
12 13 14 14 14 15 16 16 16 17 17 17 17 17 17 16 17 17 17 17 16 16 16 15 15 14 14 14 14 13 13 13
11 13 14 14 15 16 16 16 17 17 17 17 17 16 17 17 16 16 17 16 16 16 15 15 14 14 14 13 13 13 12 12
12 12 13 15 15 16 17 17 17 17 16 16 16 16 17 17 16 16 16 16 15 15 15 14 13 13 13 12 12 12 12 12
13 13 15 15 15 16 17 17 17 17 16 16 16 17 17 17 16 16 16 15 15 15 14 13 12 12 12 11 11 11 11 11
13 14 15 15 15 17 17 17 17 17 16 16 16 16 16 16 16 16 15 15 14 14 13 12 12 11 10 10 10 10 10 10
14 15 15 15 16 17 17 17 16 16 16 16 16 16 16 16 16 15 15 14 13 13 13 12 10 10 9 8 8 8 8 9
15 15 16 15 16 16 16 16 16 15 15 16 16 16 15 15 15 15 14 13 13 12 12 11 10 9 9 7 7 7 7 7
15 15 16 15 15 15 15 15 15 15 15 15 15 15 14 15 14 14 13 13 13 12 11 10 8 8 8 8 7 6 6 6
15 15 16 16 16 16 15 15 15 14 14 14 14 14 14 14 14 13 13 13 12 11 10 9 8 8 9 9 10 8 6 6
16 16 17 17 17 16 15 14 14 13 13 14 13 13 14 13 13 13 12 12 11 10 10 9 9 7 8 10 10 11 8 6
16 15 16 16 17 16 15 14 14 13 14 13 13 13 13 13 12 12 12 11 11 10 9 9 8 8 7 7 7 7 9 9
16 15 16 16 16 15 15 15 14 14 14 13 13 12 12 12 12 12 11 11 10 9 9 9 9 8 8 7 6 5 5 7
16 15 15 14 16 16 15 15 15 13 13 12 12 12 11 11 11 11 11 10 9 9 9 8 8 7 6 6 7 7 7 6
15 15 15 14 15 15 15 15 15 14 14 13 12 12 11 11 10 10 10 9 8 8 8 7 7 7 6 6 5 5 5 5
15 15 15 14 14 15 15 14 14 13 13 12 12 11 10 10 10 10 9 9 8 8 7 7 7 6 5 5 5 5 4 4

GFSFLT2_925_temp_030.txt.gz
Temp
15 15 15 15 16 17 17 16 17 17 18 17 17 18 18 18 18 18 18 18 18 18 17 17 17 17 17 16 16 16 18 17
15 15 15 16 16 16 17 17 17 17 18 17 17 18 18 17 18 18 18 18 18 17 17 17 17 16 16 16 16 16 17 18
13 13 13 15 15 16 16 16 17 17 18 18 18 17 18 18 17 17 17 17 17 17 17 17 16 16 16 16 16 16 17 17
12 12 12 12 12 14 15 15 16 16 17 16 17 17 18 18 16 17 17 17 17 17 17 17 16 17 16 16 16 16 16 16
11 12 12 13 14 15 14 15 17 17 17 17 16 16 16 17 16 16 16 16 16 16 16 16 15 16 15 15 15 16 16 16
11 12 14 14 14 15 15 15 16 16 17 16 16 17 17 17 17 17 16 16 15 15 15 14 14 14 14 14 14 15 15 15
13 13 14 13 13 15 16 16 16 17 17 17 17 17 16 17 16 16 17 16 16 16 15 15 14 14 14 14 14 13 13 14
12 13 13 14 16 16 16 17 17 17 17 16 16 17 16 16 16 16 16 16 16 16 16 15 15 14 13 13 13 13 13 13
14 14 15 15 16 16 16 17 17 17 17 15 16 16 16 16 17 16 16 15 15 14 14 14 14 14 13 13 13 12 12 12
15 15 15 15 15 16 17 17 17 17 16 16 15 16 15 16 16 16 15 15 15 15 15 15 14 14 13 13 12 12 11 11
16 16 16 15 15 16 16 17 17 17 16 16 15 16 15 16 16 15 14 15 15 15 14 14 14 14 13 12 12 12 11 11
17 16 16 16 17 17 18 17 17 16 16 16 15 16 15 15 15 14 14 15 14 14 14 13 14 14 13 12 11 11 11 11
18 17 17 17 17 17 17 17 17 16 16 16 15 16 15 15 15 13 14 15 15 13 13 13 12 12 12 12 11 10 10 10
18 18 18 18 18 18 18 18 18 16 15 15 15 15 15 14 14 14 14 14 13 13 12 13 13 11 13 13 16 13 10 9
19 19 18 18 18 18 17 17 15 15 14 14 14 14 14 14 13 14 13 13 13 12 12 12 13 11 10 12 15 16 13 11
19 19 19 18 18 19 17 18 18 16 14 14 15 13 14 14 13 13 12 13 13 12 12 12 11 11 10 10 10 11 13 14
19 19 19 19 18 18 17 18 19 18 15 15 14 12 12 13 12 12 12 12 12 11 10 9 10 11 11 11 10 10 10 10
20 19 19 19 18 17 18 18 18 16 15 13 12 10 11 11 11 11 11 11 10 10 9 9 10 9 11 10 10 11 11 10
20 20 20 19 18 17 17 17 17 15 14 12 11 11 11 11 10 10 10 10 9 9 9 7 8 9 9 10 9 9 9 9
20 20 20 19 18 17 16 16 15 14 13 12 12 11 10 9 9 8 9 9 9 9 7 7 8 8 8 8 9 8 8 7

GFSFLT2_925_temp_033.txt.gz
Temp
16 16 16 16 16 17 17 16 17 16 16 17 18 18 18 18 19 19 18 18 18 18 18 18 17 17 17 17 18 18 19 19
16 16 15 16 16 16 16 17 16 16 16 17 18 18 18 18 18 18 18 18 18 18 17 17 17 17 17 17 17 18 19 19
15 15 15 15 16 16 16 16 16 17 17 17 17 18 18 18 18 18 18 18 18 17 17 17 17 16 16 17 17 18 19 19
14 14 14 15 15 16 15 16 16 16 17 17 18 18 17 17 17 17 17 17 17 17 17 17 17 18 17 18 17 17 18 17
12 12 13 13 15 14 13 14 16 16 16 17 17 18 18 16 17 17 17 17 16 16 17 18 17 18 17 16 17 18 18 17
11 11 12 13 12 13 13 14 15 16 16 17 17 17 17 17 17 17 17 17 17 17 17 16 16 16 15 15 15 17 17 16
11 11 11 11 12 14 15 16 17 17 18 17 18 18 18 18 19 18 18 17 17 17 16 17 16 16 16 16 15 15 15 16
10 11 11 12 14 15 16 17 18 18 18 18 18 18 18 18 17 18 18 18 18 18 17 17 17 16 15 15 15 15 14 15
11 12 14 15 16 16 17 17 18 18 18 18 18 18 17 18 18 18 18 18 18 17 17 17 17 16 15 15 15 14 14 14
14 15 15 15 15 16 17 18 18 19 19 17 17 17 17 17 18 18 18 17 17 17 17 17 17 17 16 16 15 14 13 13
15 15 16 16 17 17 18 18 17 18 19 17 17 17 17 17 18 17 16 17 17 17 17 17 16 16 16 15 14 14 13 14
17 16 16 16 16 17 18 18 18 19 18 18 18 18 17 17 18 17 16 17 17 17 16 16 16 16 16 15 14 13 13 13
18 18 18 17 17 18 19 19 19 19 17 18 18 18 17 17 17 16 16 17 17 16 15 15 15 14 15 15 15 13 12 12
19 19 19 19 19 20 20 20 20 20 17 18 18 17 17 16 17 16 16 17 16 15 15 15 15 14 15 15 16 15 13 12
20 20 20 20 20 20 20 20 20 20 18 17 17 17 17 17 16 16 16 16 15 14 14 15 15 14 13 14 16 17 16 13
21 21 21 21 20 21 20 20 20 20 19 18 17 16 16 17 16 16 16 15 15 14 14 14 14 14 14 12 13 13 14 15
21 21 21 21 20 20 21 20 20 20 19 17 16 17 16 16 16 15 15 14 14 14 14 13 12 11 12 11 13 12 12 12
22 22 22 22 21 20 20 20 20 21 20 18 17 16 15 15 15 14 13 13 13 13 12 10 10 10 10 11 13 13 13 13
23 22 22 22 21 20 20 20 20 20 20 17 17 15 13 12 12 11 11 11 11 10 10 10 9 9 9 11 12 11 11 11
23 23 22 22 21 21 20 19 19 19 18 17 15 13 12 12 13 9 9 10 9 8 9 9 8 7 9 10 10 10 10 10

GFSFLT2_925_temp_036.txt.gz
Temp
16 16 16 17 17 17 17 17 17 17 17 17 18 18 18 18 18 18 19 18 18 18 17 17 17 17 18 18 19 19 18 17
16 16 16 16 16 16 16 16 17 17 17 17 17 18 18 19 18 18 18 18 18 18 17 17 17 17 18 18 18 19 17 16
15 15 15 16 16 16 16 16 16 17 17 17 18 17 18 17 18 18 18 18 18 17 17 17 17 17 18 18 18 18 16 15
15 15 15 15 15 16 17 16 16 17 17 17 17 17 17 18 18 18 18 17 17 17 17 17 17 17 17 17 17 18 17 16
14 14 15 15 15 16 15 16 16 17 17 18 17 17 17 18 17 17 17 17 17 17 17 16 17 17 17 17 17 17 16 16
11 12 13 14 14 14 15 15 16 17 17 17 17 17 18 17 17 17 17 17 17 17 16 16 16 16 15 15 16 17 15 15
11 11 12 13 13 14 16 14 15 16 17 17 17 18 18 18 17 17 17 17 17 17 17 16 16 16 16 16 15 15 16 14
10 11 11 12 12 13 13 14 14 16 17 17 18 18 18 18 18 18 18 18 17 17 17 17 17 16 15 15 15 15 15 14
11 11 11 12 12 12 13 12 15 16 18 18 18 18 18 18 18 18 18 18 18 18 17 17 17 16 16 15 15 15 14 14
11 11 12 12 12 13 13 14 17 18 18 18 18 18 18 18 18 18 18 18 17 17 17 17 17 17 16 15 15 15 14 13
12 13 13 14 14 15 16 18 17 18 19 18 18 18 18 17 18 18 18 17 17 17 17 17 17 17 16 15 15 14 14 14
14 14 15 15 15 16 17 17 17 18 19 18 18 17 17 17 18 18 17 17 17 17 17 17 16 16 16 15 15 14 14 14
15 15 16 16 15 15 17 18 18 18 18 18 18 18 17 17 17 17 17 17 17 17 16 16 16 16 15 15 15 14 13 13
16 16 16 16 16 16 17 18 18 18 18 18 18 16 18 17 17 17 16 16 17 16 16 15 15 15 14 15 12 13 13 12
18 17 16 16 17 18 18 19 19 19 19 18 18 17 18 17 17 17 16 16 17 16 15 15 15 14 14 13 11 12 13 12
19 19 19 18 19 19 20 20 20 20 19 18 18 18 17 17 17 16 16 16 16 15 14 14 15 14 13 13 13 12 11 10
20 20 20 20 19 20 20 20 20 20 20 19 18 17 17 16 17 17 16 16 15 15 14 14 14 13 12 12 11 11 12 11
21 21 21 21 21 20 20 20 20 20 20 19 18 18 17 16 16 16 15 15 14 12 10 12 11 11 11 10 9 9 12 11
21 21 21 21 21 21 20 20 20 20 20 19 17 16 16 15 15 15 15 14 13 11 9 10 10 10 9 9 9 10 12 11
22 22 21 22 22 21 20 20 20 19 19 19 18 16 16 15 15 15 14 12 11 10 11 10 10 9 8 8 8 10 10 10

GFSFLT2_925_temp_039.txt.gz
Temp
17 17 16 16 16 15 17 17 17 17 17 17 17 17 17 17 18 18 18 18 18 18 18 18 18 18 19 19 16 15 15 15
16 16 16 15 16 16 16 17 17 17 18 17 17 17 17 18 18 18 18 18 18 18 18 18 18 18 18 18 17 15 15 14
16 15 15 15 15 16 16 17 17 17 17 18 18 17 18 18 18 18 18 18 18 17 18 17 18 17 17 17 16 16 16 15
14 14 14 14 14 16 16 16 17 17 17 18 17 18 18 18 18 18 17 18 18 17 17 17 17 17 17 17 16 16 16 15
14 14 13 13 14 15 16 16 17 17 18 18 18 18 19 18 17 17 17 17 17 17 16 16 16 16 17 17 16 16 16 15
14 14 14 15 14 15 16 16 17 17 17 17 18 18 17 18 17 17 17 17 17 17 16 16 16 17 16 16 15 15 15 14
12 13 14 14 15 15 15 16 16 17 17 17 18 18 18 17 18 17 17 17 17 16 16 16 16 16 16 16 16 15 14 14
11 12 13 14 13 13 14 15 17 17 17 18 18 17 18 18 17 17 18 17 17 17 17 16 16 16 16 15 15 15 14 14
11 11 12 13 14 14 14 16 17 17 17 18 18 17 17 17 17 17 17 17 17 17 17 16 16 16 16 15 15 15 14 14
11 11 12 13 13 13 15 16 17 17 17 17 17 17 18 18 18 18 18 18 17 17 17 17 16 16 16 15 15 15 14 13
11 12 12 12 12 13 14 14 16 16 18 17 18 18 18 18 18 18 18 18 17 17 17 17 16 16 16 15 15 15 14 14
11 12 13 13 13 14 14 15 15 16 17 18 18 18 18 18 18 17 18 18 17 17 17 16 16 16 16 16 15 15 14 14
11 11 12 12 12 13 13 13 15 17 17 17 18 18 18 17 18 17 18 17 17 17 17 17 16 16 15 15 15 14 14 14
12 12 13 13 13 14 14 15 17 18 18 18 18 18 17 17 17 17 17 17 17 17 16 16 16 15 15 14 10 12 13 13
14 14 15 15 15 15 16 16 17 17 18 18 18 17 17 17 17 17 17 17 17 16 16 16 15 15 15 14 10 9 11 13
15 15 15 15 15 15 15 15 16 17 18 18 18 18 18 17 16 17 16 16 16 16 16 15 15 14 13 13 13 12 9 9
15 15 15 16 16 16 15 16 17 18 18 18 18 18 18 17 16 16 16 16 16 16 15 15 14 12 11 12 12 11 11 9
16 16 16 16 16 16 17 17 18 19 19 18 19 18 17 17 16 16 16 16 15 15 14 13 13 11 10 10 10 9 9 8
17 17 17 17 17 17 17 18 19 20 20 19 19 18 18 18 16 16 16 16 15 15 14 12 11 10 10 10 9 9 9 9
18 18 18 18 18 18 18 18 19 19 20 20 19 19 17 17 16 16 16 15 15 14 13 11 10 10 10 10 9 9 8 9

GFSFLT2_925_temp_042.txt.gz
Temp
16 17 18 16 14 16 17 17 17 17 17 17 17 17 18 18 18 18 18 18 18 18 18 18 17 17 16 16 16 16 15 14
16 16 15 14 13 16 18 18 17 17 17 17 17 18 18 18 18 18 18 18 18 18 18 18 17 17 17 16 15 15 15 14
15 15 14 14 14 16 17 17 17 17 17 17 17 17 18 18 18 18 18 18 18 18 17 18 17 17 16 16 16 15 14 14
14 17 14 14 14 16 17 17 17 17 17 17 17 18 18 18 18 18 18 18 17 17 17 17 17 16 16 16 16 15 15 14
14 13 13 14 16 17 17 17 17 17 17 18 18 18 18 18 17 18 18 17 17 17 16 17 16 16 16 16 16 15 15 14
13 12 12 13 14 16 17 17 17 17 17 18 18 18 18 18 18 17 17 17 17 16 16 16 16 16 16 15 15 15 15 15
13 13 13 13 14 16 16 17 17 17 18 18 18 18 18 18 18 17 17 17 17 16 16 16 16 16 15 15 15 15 14 14
13 13 13 14 15 16 16 16 17 17 17 18 18 19 18 18 18 17 17 17 17 17 16 16 16 16 16 15 15 14 14 14
11 12 13 14 15 16 16 16 16 17 17 17 18 18 18 18 17 17 17 17 17 16 16 16 16 15 16 15 15 15 14 14
11 12 12 14 14 15 16 17 17 17 17 17 17 17 17 17 17 17 17 17 17 17 17 16 16 16 16 15 15 15 14 14
11 11 12 14 14 15 16 16 17 18 18 19 17 17 17 17 17 17 17 17 17 17 17 16 16 16 16 15 15 15 14 14
11 11 12 13 13 13 15 15 16 18 18 18 17 17 17 18 17 17 17 17 17 17 17 16 16 16 16 15 15 15 14 14
11 11 12 12 12 13 12 14 16 17 18 18 17 17 17 17 17 17 17 17 17 17 17 16 16 16 15 14 14 14 14 14
10 11 12 12 12 12 13 14 15 16 17 17 17 17 18 17 17 17 17 17 17 17 17 16 16 15 15 13 10 12 13 13
10 11 11 12 12 12 13 13 15 15 16 17 17 17 17 17 17 17 17 17 17 17 17 16 15 14 15 15 8 9 10 12
11 11 11 12 12 13 13 13 14 14 15 16 17 17 17 17 17 17 17 17 17 17 16 16 16 15 13 13 14 13 9 9
12 12 12 12 13 13 13 14 15 15 16 17 18 18 18 17 17 17 17 16 17 16 16 15 16 15 13 12 12 12 11 9
13 13 13 14 14 14 14 14 14 15 16 16 17 18 18 18 17 17 16 16 15 15 15 15 15 15 13 13 12 11 9 9
14 14 14 14 14 14 14 15 15 15 16 16 16 16 17 18 17 16 16 15 15 15 14 14 14 14 12 12 11 11 11 10
14 14 15 15 15 15 15 15 15 15 16 16 16 17 18 18 17 16 16 15 15 14 14 14 14 13 12 11 10 10 10 9

GFSFLT2_925_temp_048.txt.gz
Temp
17 16 16 16 16 16 17 17 17 17 17 16 16 16 16 16 16 17 17 17 16 16 16 16 16 16 15 15 14 13 13 13
16 16 15 15 15 17 17 17 17 18 17 16 16 16 16 17 17 17 17 16 16 16 16 16 16 16 15 15 14 13 13 13
15 15 15 15 15 16 15 16 17 17 16 16 16 17 17 17 17 17 17 17 17 17 16 16 16 15 15 15 14 13 13 13
15 15 14 13 13 15 16 16 17 16 16 16 17 17 17 17 17 17 17 17 17 17 16 16 16 15 15 15 14 13 13 13
15 14 14 13 13 13 14 15 16 17 17 17 17 17 17 17 17 16 16 17 17 17 16 16 16 16 15 14 14 13 13 13
13 13 13 13 13 13 15 15 15 16 17 17 17 17 17 17 17 16 17 16 16 16 16 16 16 15 15 14 14 13 13 13
13 12 12 12 12 13 13 14 14 16 17 17 17 17 17 17 17 17 17 17 17 17 16 16 16 15 15 15 14 14 14 13
13 12 12 11 11 12 12 13 15 16 16 17 17 17 17 17 17 17 17 17 17 17 17 16 15 15 15 15 15 14 14 14
13 13 12 12 12 12 12 13 13 14 16 17 17 17 17 17 17 17 17 17 17 16 16 16 15 15 15 15 14 14 14 14
13 12 12 12 12 13 12 13 13 14 16 16 17 17 17 17 17 17 17 16 16 16 16 15 15 15 15 15 14 14 14 14
12 12 12 13 12 13 13 13 14 15 17 16 16 17 17 17 17 17 17 16 16 16 15 15 15 15 15 15 14 14 14 14
12 12 12 12 12 12 14 14 15 17 16 16 16 16 17 17 17 17 17 16 16 16 16 15 15 15 15 14 14 14 14 14
11 12 11 12 12 12 14 14 15 16 16 15 16 16 16 17 16 16 17 16 16 16 15 15 15 14 13 13 13 13 14 14
11 12 12 11 12 12 13 14 14 16 15 15 16 16 16 16 17 16 16 15 16 16 16 15 14 14 14 12 10 12 13 13
11 11 12 12 12 12 13 14 15 15 14 15 15 16 17 16 16 16 16 16 16 16 16 15 15 14 14 15 9 10 11 13
11 11 11 12 12 13 13 14 14 15 15 15 15 16 17 17 16 16 17 16 16 16 16 15 15 15 13 14 14 14 10 10
11 11 11 11 12 12 13 13 14 15 14 15 16 16 16 17 16 16 16 16 16 16 16 15 15 15 14 13 12 12 12 11
10 11 11 11 12 13 13 13 13 13 14 15 16 16 16 17 16 16 17 16 16 16 16 15 15 14 14 14 14 12 11 10
10 10 10 11 11 11 12 12 13 12 13 13 14 15 16 16 16 16 17 16 16 16 15 14 13 13 13 13 13 13 14 13
10 10 10 11 11 11 11 12 12 12 13 13 13 14 15 15 15 16 17 16 16 15 14 13 12 12 12 12 12 12 12 13

GFSFLT2_925_temp_051.txt.gz
Temp
17 17 18 18 19 18 18 17 17 17 17 17 16 16 16 16 16 16 16 16 16 16 16 16 15 15 14 14 14 13 14 14
15 15 16 17 17 17 17 17 17 16 16 16 16 16 16 16 17 17 17 17 16 16 16 16 15 15 14 14 13 13 14 14
16 15 15 16 16 16 17 17 17 16 16 16 16 15 16 16 16 17 17 16 16 16 16 16 15 15 14 13 13 13 13 14
16 15 15 15 15 15 16 17 16 16 15 16 15 16 16 15 17 17 17 16 16 16 16 15 14 13 13 13 13 13 13 14
15 15 15 15 14 14 15 16 16 15 15 15 15 16 16 17 16 15 16 16 14 15 15 14 14 14 13 13 13 13 13 14
14 14 14 13 12 13 14 14 14 14 15 16 16 16 15 16 16 16 16 15 15 15 14 15 15 15 15 14 13 13 13 13
14 14 14 13 12 12 13 14 14 15 16 16 16 15 16 16 16 16 17 17 16 16 15 15 15 15 14 14 13 12 12 13
13 13 13 12 12 12 13 14 14 15 16 17 17 16 16 16 16 16 16 17 16 16 15 15 14 15 14 14 14 13 12 12
12 12 12 12 12 12 12 13 13 14 16 17 17 17 16 17 16 16 16 16 16 16 16 16 15 14 13 14 14 14 14 13
12 12 12 12 12 12 12 12 13 13 14 15 15 17 17 17 16 17 16 16 16 16 16 15 14 14 14 14 14 14 14 14
12 12 12 12 12 12 12 12 12 13 14 15 15 17 17 17 17 17 16 16 15 16 15 16 15 14 14 14 14 13 14 14
12 12 12 12 12 12 12 12 12 13 15 14 15 16 16 16 16 16 16 16 15 15 15 15 15 14 13 13 14 14 14 14
12 12 12 12 12 12 12 12 12 12 14 13 15 16 16 16 16 16 16 16 16 15 15 15 14 14 13 12 12 13 13 13
12 12 12 12 12 12 12 12 13 13 13 15 15 16 16 16 16 16 16 15 15 15 15 13 13 14 14 14 15 14 13 14
11 12 12 12 12 12 12 12 13 12 15 16 16 16 16 16 16 16 15 16 16 15 15 15 14 13 14 16 15 16 15 13
12 11 11 12 12 12 12 13 14 14 15 16 16 15 15 16 16 17 16 16 16 15 15 15 14 14 12 14 14 14 16 15
12 12 12 11 12 12 12 14 15 14 15 16 17 15 16 16 16 16 16 17 16 15 16 15 15 14 13 13 12 11 12 11
11 12 12 12 12 12 12 13 14 15 15 15 15 15 15 15 15 16 16 16 16 15 15 14 14 14 13 12 13 12 10 10
10 11 12 12 12 12 12 13 13 14 14 14 14 13 14 15 15 15 15 15 16 16 15 15 14 14 13 12 11 12 12 12
10 11 12 12 12 12 12 12 13 13 13 14 14 13 13 14 15 15 15 16 16 16 15 15 14 13 12 11 12 12 10 10

GFSFLT2_925_temp_054.txt.gz
Temp
17 17 18 19 19 18 18 18 18 18 17 17 17 17 17 17 16 16 16 16 16 16 15 15 15 15 15 15 15 17 18 17
16 17 17 17 17 17 18 18 18 18 17 18 17 17 16 17 17 17 16 16 16 16 15 15 15 14 14 14 15 16 17 17
15 15 16 17 17 16 17 17 17 17 17 17 17 16 16 17 17 16 16 16 16 16 16 15 14 14 14 14 16 17 17 17
15 15 15 15 16 16 16 16 15 16 16 16 16 16 16 17 16 16 16 16 16 16 15 15 15 14 14 15 17 17 17 17
15 15 14 15 15 14 14 14 15 15 15 16 16 16 17 16 15 15 15 15 15 15 14 16 16 16 15 17 16 16 17 16
15 15 14 14 13 13 14 14 14 14 13 14 15 16 16 17 17 17 16 16 16 16 16 17 16 16 16 16 16 17 17 16
14 14 14 14 13 13 13 14 14 14 14 15 15 16 17 17 17 17 18 18 17 17 17 16 16 16 16 16 16 16 16 16
14 13 13 13 13 13 13 13 14 13 14 15 16 16 16 17 17 17 17 17 17 17 17 16 17 16 16 16 15 15 15 16
13 13 13 13 12 13 13 12 13 13 15 15 16 15 16 16 17 18 17 17 17 17 16 17 17 17 16 15 15 15 15 15
13 12 12 12 12 12 12 13 13 13 13 14 14 15 15 16 17 17 17 17 17 17 16 17 17 17 16 16 16 15 15 15
12 12 12 12 12 12 12 12 13 13 14 14 16 16 16 16 17 16 16 17 17 17 16 17 17 17 16 16 16 16 15 15
13 12 12 12 12 12 12 12 12 13 14 14 14 15 15 16 17 16 16 17 16 16 16 16 17 17 17 16 16 16 15 15
13 12 12 12 12 12 12 11 12 14 14 13 14 15 15 16 17 16 16 17 17 16 16 16 16 16 16 16 15 15 15 15
12 12 12 12 12 12 12 12 12 12 13 13 14 14 15 16 17 16 16 17 16 15 15 16 17 15 17 18 19 17 16 15
12 12 12 12 12 12 12 11 12 12 13 14 14 15 16 16 16 16 16 16 16 15 15 16 17 15 16 18 19 19 20 17
13 12 12 12 12 12 11 12 12 12 13 14 15 15 15 16 15 15 15 16 16 16 15 15 16 17 15 16 17 18 20 19
15 13 12 12 12 12 12 12 12 12 13 13 14 15 15 15 15 15 15 16 15 15 15 15 16 16 17 17 16 16 16 17
15 14 13 12 12 12 12 13 13 14 13 13 13 14 14 14 15 15 16 15 15 16 15 15 15 15 16 16 17 17 17 16
16 14 13 12 12 12 13 13 14 15 14 14 14 14 14 15 14 14 14 14 15 15 16 15 15 15 15 15 15 16 16 16
15 15 15 14 12 12 14 14 14 15 15 15 15 15 15 15 15 14 15 15 15 15 15 15 15 15 15 15 15 15 14 13

GFSFLT2_925_temp_057.txt.gz
Temp
18 18 18 19 19 18 16 18 18 18 18 18 18 17 17 16 17 16 16 16 15 15 15 15 15 15 16 17 18 19 19 18
17 17 17 18 18 18 16 17 18 18 17 17 17 17 17 16 16 16 17 16 16 15 15 15 15 15 16 16 18 19 19 18
16 16 16 17 17 17 16 16 17 17 17 18 17 17 17 17 16 16 16 16 16 15 15 15 15 15 16 17 18 19 19 18
16 16 17 16 15 16 15 16 15 17 17 17 16 17 17 17 16 16 16 16 16 15 15 15 15 15 15 16 17 19 19 17
15 16 16 15 15 15 15 15 15 16 16 17 16 16 17 16 16 16 15 15 14 14 14 16 17 17 16 18 18 19 19 17
15 15 15 15 16 15 15 15 15 15 15 15 14 16 16 15 15 16 15 15 15 15 16 18 18 17 18 18 18 19 18 16
15 15 15 14 14 15 15 14 14 14 14 14 14 16 16 16 16 16 16 17 17 17 18 18 18 18 18 17 18 19 18 16
14 15 14 14 14 13 13 14 14 14 14 13 13 16 17 17 17 18 18 19 18 18 19 18 18 18 17 17 18 18 18 17
13 14 14 14 14 13 13 14 13 13 13 14 14 16 17 18 18 19 19 19 19 19 18 18 18 18 17 17 17 17 17 18
13 13 13 13 13 13 13 13 13 12 13 13 15 16 17 18 19 19 19 19 19 19 18 19 19 19 18 17 18 17 17 17
14 13 13 13 12 13 13 13 13 13 13 15 16 16 16 17 18 18 19 19 19 19 18 19 19 19 18 18 18 18 17 17
13 13 12 12 12 12 12 12 12 12 13 14 15 15 16 17 17 17 18 18 18 18 18 18 19 19 19 18 18 18 17 17
14 13 12 12 12 12 12 12 12 13 14 14 15 15 15 16 16 17 17 18 18 18 18 18 18 19 19 18 18 17 17 17
13 13 12 12 12 12 12 12 12 12 13 14 15 15 15 16 16 16 16 18 18 17 17 18 18 18 19 19 19 18 17 16
13 12 12 12 12 13 12 12 12 12 12 14 14 14 15 16 16 16 16 18 18 17 17 17 18 18 17 19 20 20 20 18
14 13 12 13 12 12 12 12 12 12 12 13 15 15 15 16 16 17 17 17 18 17 17 17 18 18 17 17 18 18 19 17
15 12 12 12 12 12 12 13 13 13 13 13 15 15 15 15 16 17 17 17 17 17 17 16 17 18 18 18 17 18 18 18
15 14 12 12 12 12 12 12 12 13 12 12 14 15 15 15 17 17 16 16 16 16 16 16 16 17 17 17 17 17 18 18
17 15 14 12 12 12 13 13 12 13 13 13 13 14 14 15 15 16 16 15 15 16 16 15 16 16 16 16 16 16 17 18
19 17 16 13 12 12 13 14 13 14 14 14 14 13 14 15 16 16 16 16 15 15 16 16 16 16 16 16 16 16 17 17

GFSFLT2_925_temp_060.txt.gz
Temp
19 19 19 19 20 19 18 16 16 17 18 18 18 18 17 17 17 17 16 16 15 16 16 16 17 17 18 18 18 18 17 15
18 18 18 18 18 18 16 16 16 14 18 18 18 18 17 17 16 16 16 15 15 15 15 16 16 17 18 18 19 18 17 15
17 17 17 17 17 17 16 16 16 15 18 17 17 17 17 16 16 16 16 15 15 15 15 16 16 17 18 19 19 19 16 15
16 17 17 17 16 16 16 16 16 15 18 17 16 17 16 17 16 16 15 15 15 15 15 15 16 17 18 18 19 18 16 14
16 16 16 16 16 16 16 15 15 15 16 16 17 16 16 16 15 15 15 15 15 15 15 16 16 16 17 18 19 17 16 14
16 16 16 15 15 15 15 15 15 15 15 16 17 16 16 16 15 15 14 14 15 16 16 16 16 16 17 18 19 17 16 14
15 15 15 16 15 15 14 15 16 15 16 16 16 16 16 17 15 15 15 15 15 16 16 17 17 17 17 18 18 17 16 15
14 15 15 15 15 15 14 14 14 15 15 15 15 15 15 16 15 15 16 16 16 17 17 18 17 18 17 18 18 17 16 15
14 15 15 15 14 14 14 14 14 14 14 15 15 15 15 16 16 16 17 17 17 18 18 18 18 18 17 18 18 18 17 15
14 14 14 14 14 13 14 14 14 13 14 14 15 15 16 17 16 17 18 18 18 18 18 18 18 18 17 17 17 17 17 16
13 14 14 14 14 14 13 14 13 12 13 14 15 16 16 17 18 18 18 18 19 18 18 18 19 18 17 17 17 17 17 17
14 13 13 13 13 13 13 13 13 12 12 13 14 15 16 15 17 17 18 18 19 18 18 19 19 19 18 18 18 17 17 17
14 13 13 13 12 12 13 12 12 12 12 14 15 16 16 17 17 18 18 18 18 18 18 18 19 19 19 18 18 18 17 17
14 13 13 12 12 12 12 12 12 12 13 14 15 15 16 16 17 17 18 18 18 18 18 18 18 18 19 18 14 16 17 17
14 13 13 12 12 13 12 12 12 12 13 14 15 15 15 15 16 17 17 17 18 18 18 18 18 18 18 18 15 14 16 17
13 13 13 13 12 12 12 12 12 13 13 14 15 15 15 16 16 16 17 17 17 17 17 17 17 18 18 18 17 17 15 14
14 13 13 13 13 13 13 12 13 13 12 13 14 15 15 15 16 16 17 17 17 17 17 17 17 17 17 17 18 17 17 16
14 13 13 13 13 13 13 13 13 13 13 13 13 14 15 15 16 16 16 17 17 17 17 17 16 17 17 17 17 17 17 16
16 13 13 13 12 13 13 13 13 13 13 13 13 14 15 15 15 16 16 17 16 17 17 17 16 16 17 17 17 17 17 17
17 15 14 13 13 13 13 13 13 13 13 13 13 14 15 15 15 16 17 16 16 16 16 16 16 16 16 16 16 16 16 16

GFSFLT2_925_temp_063.txt.gz
Temp
19 19 19 19 20 20 19 18 16 16 17 18 18 18 17 17 17 16 16 16 16 16 17 18 18 18 18 17 16 16 16 14
19 19 18 19 18 18 18 18 16 16 16 15 17 18 17 17 17 16 16 16 15 16 17 17 18 18 17 17 17 16 15 14
19 18 18 17 17 17 17 17 16 17 15 15 17 17 17 17 17 16 16 15 16 16 17 17 18 18 17 16 15 15 15 14
18 17 17 16 16 16 16 16 15 15 15 15 17 17 16 16 16 16 16 16 16 16 16 17 18 18 18 17 16 15 15 14
17 16 16 16 15 16 16 16 16 17 15 15 17 16 16 16 15 15 15 15 15 16 16 17 18 18 18 16 15 15 14 14
17 16 16 16 15 15 15 15 16 14 15 15 17 16 16 16 15 15 15 15 16 15 16 17 17 18 18 16 15 16 15 14
16 16 15 16 15 15 15 14 14 14 15 16 16 16 15 15 15 15 16 15 15 16 16 17 17 17 18 16 16 16 15 14
15 16 15 15 15 14 14 14 14 14 15 15 16 16 16 15 15 16 15 16 16 16 16 17 17 17 17 17 17 16 15 14
15 15 15 15 15 14 14 14 14 14 14 15 16 16 16 15 15 15 16 16 17 16 16 17 17 17 18 17 16 16 15 15
14 14 15 15 14 14 14 14 14 15 15 16 16 16 16 16 15 16 16 17 17 17 16 17 17 17 17 17 16 16 16 15
14 14 14 15 14 14 14 14 14 15 15 15 16 16 16 16 15 16 16 17 17 17 17 18 17 17 17 17 17 16 16 15
14 13 13 13 14 14 14 14 13 14 15 15 15 16 15 15 16 17 16 17 17 17 18 18 18 17 17 17 17 17 16 15
14 13 13 13 13 13 13 13 13 12 13 13 15 15 15 16 16 17 17 16 17 18 18 18 18 17 17 17 17 17 17 17
14 13 13 12 12 13 13 13 12 12 12 13 13 14 16 16 17 17 16 17 17 18 18 18 18 18 17 16 13 15 16 17
14 14 13 12 12 12 12 12 12 12 12 12 14 15 16 16 16 16 16 16 16 18 18 18 18 18 18 17 11 12 14 17
14 14 13 13 12 12 12 12 12 12 12 13 14 15 16 16 15 15 16 17 18 18 18 17 16 18 17 18 18 17 12 13
15 14 13 13 13 12 12 12 13 12 13 14 14 15 16 16 17 17 17 18 18 17 17 17 17 18 18 18 18 17 16 13
14 13 12 12 12 13 12 12 12 12 13 13 14 14 15 16 16 16 17 17 17 17 17 17 17 17 17 18 18 17 15 15
13 13 13 13 12 12 13 12 13 13 12 13 13 14 14 15 16 16 16 16 17 17 17 16 17 17 17 17 17 17 17 17
13 13 13 13 12 12 12 12 12 12 13 13 13 13 14 15 16 16 16 16 16 17 17 16 16 17 17 17 17 17 17 17

GFSFLT2_925_temp_069.txt.gz
Temp
20 20 19 18 19 19 20 20 19 17 18 17 17 17 18 17 17 17 17 17 16 16 16 15 16 16 16 16 16 16 15 15
20 19 19 19 19 18 19 18 17 16 16 16 17 17 17 17 17 17 17 17 16 16 16 15 16 16 16 16 16 15 15 14
19 19 19 19 19 20 19 18 18 19 16 16 15 16 16 16 17 17 17 17 16 16 16 16 16 16 16 16 15 15 14 14
18 18 18 18 18 18 18 17 16 15 16 16 16 17 16 15 16 16 16 16 16 16 16 16 16 15 15 15 15 14 14 13
17 18 18 17 17 17 17 16 15 15 16 16 15 17 15 15 16 16 16 15 16 16 16 15 15 15 15 15 15 14 13 13
17 17 17 17 16 16 16 16 15 15 15 14 15 14 15 15 15 15 16 15 15 15 16 16 16 15 16 15 14 14 13 13
17 17 16 17 16 15 15 16 15 15 14 15 15 14 14 15 15 16 15 15 16 16 15 15 15 16 16 15 14 14 13 13
17 16 17 17 17 16 14 15 14 14 14 14 14 14 14 14 14 15 15 15 16 16 16 16 16 16 15 15 14 14 13 13
16 16 17 17 16 15 14 14 14 14 13 14 15 14 14 14 14 14 15 15 16 16 15 15 15 15 15 15 14 14 13 13
16 16 16 17 15 15 14 14 14 14 14 14 14 14 14 14 14 15 15 15 16 16 15 15 15 15 14 14 14 14 13 13
15 15 15 16 15 14 14 14 14 14 14 14 14 14 14 14 14 15 15 15 16 16 16 15 16 15 15 14 14 14 13 13
16 15 15 16 14 14 14 14 13 13 14 14 14 14 14 14 14 15 15 15 14 15 16 15 16 15 14 14 14 14 14 13
15 14 14 15 14 14 13 14 13 13 14 14 14 14 14 14 14 15 14 15 15 15 16 16 15 15 14 12 12 13 13 13
14 14 13 14 14 14 14 13 13 13 13 14 13 14 14 14 15 15 15 15 14 15 16 15 15 15 14 13 11 12 12 12
14 14 14 14 14 14 13 13 13 13 13 13 13 13 14 13 14 14 14 15 15 15 16 16 15 15 15 15 12 12 12 13
14 13 13 13 14 13 13 13 13 13 13 13 13 13 14 14 14 13 14 14 15 15 15 16 16 15 15 16 17 16 12 12
13 13 13 13 13 13 13 13 12 12 12 12 12 12 13 14 13 14 14 15 15 16 15 16 16 16 16 15 16 15 15 12
12 12 13 13 14 13 13 12 12 12 12 12 12 12 12 13 13 14 15 15 16 16 16 15 16 17 16 16 15 15 14 13
12 12 12 13 14 13 13 12 12 12 12 12 12 12 12 13 13 13 14 15 15 14 14 15 15 16 17 16 17 17 18 15
12 12 12 12 12 13 13 13 12 12 12 12 12 12 12 12 13 13 13 14 14 14 13 14 14 14 17 17 17 17 16 16

GFSFLT2_925_temp_072.txt.gz
Temp
21 20 19 18 18 19 19 19 19 18 18 17 18 18 18 17 17 17 17 17 17 17 16 16 16 16 16 16 16 16 16 15
20 19 19 18 19 19 19 19 18 18 17 17 16 17 17 17 17 17 17 17 17 16 15 16 16 16 16 16 16 15 15 15
19 18 18 18 19 19 19 18 18 18 17 17 15 15 16 16 16 16 16 17 16 15 16 16 16 16 16 16 15 15 15 14
19 18 18 18 18 19 19 17 17 16 16 16 17 16 16 15 16 16 17 16 15 15 16 16 16 15 15 15 15 15 14 14
18 18 17 17 18 18 18 17 17 17 16 16 16 16 15 15 16 15 16 16 15 15 15 16 16 15 15 15 15 14 14 13
18 17 17 16 17 17 18 17 15 14 14 14 15 14 14 15 15 15 16 15 15 15 16 16 15 15 15 15 14 14 13 13
18 17 16 16 16 16 17 16 14 15 15 15 14 15 14 15 15 14 16 16 15 15 16 16 15 15 15 14 14 13 13 13
17 16 16 16 16 16 16 15 14 14 14 14 14 14 14 14 14 15 16 16 15 15 15 15 15 15 15 14 14 14 13 13
16 16 16 16 16 17 16 15 15 14 14 14 14 14 14 14 14 14 15 16 15 15 15 15 15 14 14 14 14 14 13 13
15 15 15 15 16 17 15 14 14 14 14 14 14 14 14 14 14 14 15 15 15 15 15 15 15 14 13 14 14 14 13 13
15 15 15 15 15 15 15 14 14 14 13 14 13 14 14 14 14 13 15 15 14 15 15 15 15 14 14 14 14 14 13 13
15 14 15 15 14 14 14 14 14 14 14 14 13 14 14 14 14 13 14 14 14 14 15 15 15 14 13 13 13 13 13 13
14 14 14 15 14 13 14 13 13 14 13 14 14 13 14 14 13 14 14 14 13 13 14 14 13 13 12 11 11 12 12 12
14 13 14 15 15 13 14 13 13 13 13 14 14 14 14 14 14 14 14 14 14 14 14 14 13 13 13 12 10 11 11 12
14 13 13 14 15 13 14 14 13 13 13 13 14 14 14 14 14 14 14 14 14 14 14 14 13 13 14 14 11 12 11 12
13 13 13 14 14 13 13 13 13 13 13 13 13 13 14 14 14 14 14 14 15 14 15 15 15 13 14 15 16 15 12 11
13 13 13 14 13 13 13 13 14 13 13 13 13 13 13 13 14 14 13 14 14 15 15 15 15 14 14 15 15 15 15 13
13 13 12 12 13 13 13 13 13 13 12 12 13 13 13 13 13 12 13 14 15 15 15 16 16 15 15 15 15 15 13 13
12 12 12 12 13 13 13 13 13 13 13 12 12 12 12 12 13 13 13 13 14 15 14 15 16 15 15 15 16 17 17 16
12 12 12 12 12 12 14 13 12 13 13 12 12 12 12 12 12 13 13 13 13 13 14 15 15 15 14 14 15 16 16 17

GFSFLT2_925_temp_075.txt.gz
Temp
21 19 18 18 18 18 19 19 20 20 20 19 19 18 18 18 18 18 18 17 17 17 17 17 17 17 17 17 17 17 16 16
20 19 18 18 18 18 18 19 19 19 18 18 18 16 16 17 18 18 17 17 17 16 16 16 16 16 16 17 16 16 16 16
19 18 18 17 18 18 18 19 18 18 18 18 17 17 17 16 17 17 17 17 16 16 16 16 16 16 16 16 16 15 15 15
19 19 17 17 18 18 18 19 18 18 18 17 17 18 17 16 16 15 17 16 17 16 16 16 16 15 15 16 15 15 15 15
19 18 18 17 18 18 18 18 18 17 17 17 17 17 16 16 15 15 15 15 15 15 15 15 15 15 14 14 14 14 14 14
18 18 17 17 17 17 17 17 17 17 15 16 16 15 15 14 16 15 15 14 15 15 15 14 14 14 14 14 14 14 14 14
18 16 16 16 16 16 16 15 17 17 16 16 16 15 14 15 14 15 15 14 14 15 14 14 14 15 14 14 13 13 13 14
17 16 16 15 15 16 16 15 16 17 16 15 15 15 14 14 14 14 14 15 14 14 14 14 14 14 14 14 13 13 13 13
15 15 15 15 15 15 15 15 16 15 14 14 14 14 14 14 14 14 14 14 14 14 13 14 14 14 14 13 13 13 13 13
15 15 15 15 15 15 15 16 15 14 14 14 14 14 14 14 14 14 14 15 14 14 14 14 14 14 14 13 13 13 13 13
15 15 15 14 14 15 14 15 14 14 14 14 14 14 14 14 13 14 14 13 14 14 14 14 14 14 14 13 13 13 12 12
14 14 14 14 14 14 14 14 14 14 14 14 14 14 14 14 14 14 13 12 13 14 13 13 14 14 14 13 13 12 12 12
14 14 14 14 14 13 14 14 14 14 14 14 14 13 14 14 13 14 13 13 13 14 13 13 13 13 13 12 12 12 12 12
14 14 14 14 14 14 14 14 13 14 14 14 14 14 13 13 13 13 13 13 13 13 14 13 13 13 15 14 14 13 12 11
14 14 14 14 15 13 13 13 13 13 13 13 13 13 13 14 13 13 13 12 12 13 14 14 14 13 14 16 15 16 14 12
14 14 14 15 15 14 13 13 13 13 13 13 13 13 13 13 13 13 13 13 13 13 13 14 14 13 13 14 15 15 16 14
13 13 13 14 14 14 13 13 14 13 13 13 13 13 13 13 13 13 13 13 13 13 13 13 14 14 14 14 14 14 15 16
12 13 13 13 14 14 13 13 13 13 13 13 13 13 13 13 13 14 13 13 14 15 14 14 14 14 14 14 15 16 15 16
12 13 13 13 13 13 13 13 13 13 13 13 13 13 13 13 13 13 13 13 13 14 14 14 14 14 14 14 15 16 17 16
13 13 12 12 13 13 13 13 13 13 13 13 12 12 12 12 12 13 13 12 13 12 14 14 14 14 15 15 15 15 16 16

GFSFLT2_925_temp_078.txt.gz
Temp
19 19 18 18 18 19 19 19 20 20 20 20 19 18 18 19 19 19 19 18 17 17 17 17 17 17 17 17 17 18 20 20
18 18 18 18 18 18 18 19 19 20 19 19 18 18 17 16 17 17 18 18 17 17 17 17 17 17 17 17 17 18 20 19
19 19 18 18 19 19 18 18 19 19 19 19 19 18 17 16 17 17 17 17 18 17 16 16 16 16 17 17 17 19 19 20
19 18 18 18 18 18 18 19 18 18 17 18 17 17 16 17 17 17 17 17 16 18 17 17 16 16 16 16 19 19 19 19
21 18 19 18 17 18 19 20 19 18 17 17 17 16 16 16 17 17 17 16 16 15 16 16 17 17 17 18 18 18 19 19
20 18 17 17 17 17 17 19 19 18 17 16 16 16 15 16 16 16 16 15 15 16 16 16 16 18 18 18 17 18 18 18
21 17 17 17 17 17 17 18 17 17 17 17 16 16 16 15 15 15 16 15 16 16 16 16 17 17 17 17 17 17 17 17
21 17 17 17 16 16 16 17 16 16 16 16 16 16 15 15 15 15 14 15 15 16 16 16 17 17 17 17 17 16 16 17
19 17 16 16 17 15 15 16 16 15 16 15 15 15 15 15 14 14 14 15 15 16 16 17 17 17 17 16 16 16 16 16
18 16 16 16 15 15 15 15 16 15 15 15 15 15 15 14 14 14 14 14 15 15 16 17 17 18 17 17 17 16 16 16
19 17 16 16 15 14 15 15 15 15 15 15 14 14 14 14 14 14 14 14 14 15 16 17 17 18 17 17 17 16 16 16
19 16 16 16 15 14 14 15 14 15 14 14 14 14 14 14 14 14 13 14 14 15 16 16 18 18 17 17 16 16 16 16
19 16 15 15 14 14 14 14 14 14 14 14 14 14 14 14 14 13 13 13 14 14 16 17 17 17 17 16 16 15 15 15
19 16 15 15 15 14 14 14 14 14 14 14 14 14 14 14 14 13 13 12 13 14 16 16 17 17 17 17 15 14 14 15
19 18 17 16 16 15 15 14 14 13 14 14 14 14 14 14 13 13 13 13 13 14 15 16 17 16 18 18 18 18 16 15
19 18 17 17 17 16 15 15 14 14 14 13 13 14 13 13 13 13 13 13 13 14 15 16 17 16 17 18 19 20 19 17
19 18 17 17 17 16 16 14 14 15 14 13 13 13 12 12 13 13 13 13 13 14 15 15 16 17 16 17 17 17 18 20
18 18 16 17 17 16 15 15 14 15 13 13 13 13 13 13 13 13 13 13 13 13 14 14 15 16 15 16 17 18 18 19
16 17 16 16 16 16 16 16 15 15 15 14 13 13 13 13 13 13 12 12 12 13 13 14 14 15 15 16 16 17 18 18
15 17 15 15 16 17 15 15 13 14 14 15 14 13 13 13 13 13 12 12 13 13 12 13 14 14 15 15 16 15 16 17

GFSFLT2_925_temp_081.txt.gz
Temp
22 19 19 19 19 19 20 19 19 19 20 20 20 19 18 18 19 19 19 19 18 18 18 18 18 18 18 18 19 19 19 19
22 20 20 19 19 18 19 19 19 20 20 20 20 19 19 17 17 16 17 17 18 18 19 18 17 18 18 18 19 20 21 20
20 19 20 21 20 20 19 19 19 19 19 19 19 18 18 18 19 17 16 17 18 18 19 18 18 17 17 18 19 21 21 20
21 19 20 20 22 20 19 19 19 19 19 18 19 17 16 17 18 18 16 17 17 18 18 19 17 16 16 18 19 21 22 21
24 19 20 19 21 20 21 21 20 19 19 18 18 17 16 17 17 16 16 16 16 16 17 18 17 17 17 18 20 20 21 20
24 21 21 21 22 19 21 22 21 20 19 18 17 17 16 17 17 16 16 16 16 16 16 16 17 17 18 19 20 20 21 18
25 23 22 20 19 18 18 21 21 19 19 18 17 17 16 17 16 16 16 16 16 16 16 16 17 17 19 18 19 20 20 19
25 22 20 18 17 17 17 18 19 18 18 18 17 17 17 17 16 16 16 15 16 15 15 16 17 17 19 19 19 19 18 19
25 21 19 19 19 17 17 17 17 17 17 17 17 17 17 17 16 16 15 16 15 15 15 16 18 18 19 18 19 18 18 18
25 22 19 20 20 18 16 16 16 16 16 17 17 17 16 15 15 15 14 16 15 14 15 16 18 19 18 19 19 18 18 18
24 21 19 19 19 16 15 15 16 16 16 15 16 15 15 15 15 15 14 15 14 14 15 17 18 18 18 19 19 18 17 18
24 20 20 19 18 16 16 15 15 15 15 15 15 15 15 15 14 14 14 14 14 14 15 17 18 18 18 19 18 18 18 18
23 21 20 19 18 17 16 16 16 15 14 14 15 15 15 15 14 14 14 14 14 14 15 16 18 18 18 17 17 17 17 18
23 21 20 19 19 18 17 16 17 16 15 14 14 14 14 14 14 14 13 13 13 14 14 15 18 17 17 17 15 15 16 16
23 21 19 19 19 18 16 15 16 15 15 15 14 15 15 14 14 14 13 13 13 14 14 16 17 17 18 18 17 17 17 16
24 21 20 19 19 17 16 16 16 17 16 15 15 15 15 14 14 13 13 13 13 13 14 15 16 17 18 19 19 20 19 17
23 22 21 20 19 20 19 19 18 17 17 15 14 14 14 14 13 13 13 13 13 13 14 15 16 17 18 19 19 19 19 19
22 22 21 20 20 20 19 19 18 17 16 15 14 13 13 13 13 13 13 13 13 13 14 15 16 17 17 18 18 18 18 20
22 22 20 21 20 19 19 18 17 16 16 15 13 13 13 12 12 13 13 13 13 13 14 15 15 16 17 17 17 18 18 19
22 22 20 20 20 19 18 18 18 18 17 16 14 13 13 13 12 13 12 13 13 13 14 14 15 15 16 16 16 16 17 17

GFSFLT2_925_temp_084.txt.gz
Temp
22 21 20 20 20 20 20 20 19 19 20 20 19 19 19 19 19 18 17 18 19 19 19 19 19 19 19 19 18 18 19 17
22 20 20 20 20 19 19 19 19 19 19 19 19 19 19 19 19 19 18 17 17 17 19 18 19 19 19 19 19 19 19 18
22 21 20 20 20 20 19 19 19 19 19 19 19 19 19 19 19 18 17 17 16 17 18 19 19 19 19 19 19 19 18 18
21 20 21 21 21 20 20 19 19 19 19 19 19 19 18 17 17 18 19 16 16 17 18 19 19 19 19 19 20 20 19 17
21 20 20 21 22 20 20 20 19 19 19 19 18 17 17 16 17 17 18 17 16 17 17 18 18 18 18 19 19 20 18 18
23 21 20 20 21 21 21 21 20 20 19 19 18 17 16 17 16 17 17 16 16 16 17 18 18 17 18 18 19 20 18 16
25 22 21 20 21 20 21 22 21 21 20 18 17 17 16 16 16 17 16 16 16 16 16 18 17 17 18 18 19 20 18 16
26 23 22 21 20 19 19 21 21 20 19 18 17 17 17 16 16 16 16 16 16 16 16 17 17 17 18 19 20 19 17 17
26 24 22 20 19 18 18 19 19 19 18 18 17 18 17 16 16 16 16 16 16 16 17 16 16 16 18 19 19 19 18 16
25 22 21 19 18 17 18 18 17 18 19 18 17 17 17 17 16 16 16 16 16 16 16 15 15 15 18 19 19 18 18 17
25 22 20 20 19 18 17 17 17 18 18 17 18 17 16 17 16 16 16 15 15 16 15 14 14 15 18 19 18 18 18 18
24 21 20 20 20 17 16 16 16 16 16 17 17 16 16 16 16 15 15 14 15 14 14 14 15 15 18 19 18 18 18 18
23 21 20 19 17 16 16 15 15 16 17 16 16 16 15 15 15 14 14 14 15 14 14 14 14 17 18 18 17 17 18 18
23 21 20 20 18 17 18 17 16 16 16 15 15 15 15 15 15 14 14 14 14 14 14 14 14 17 17 16 14 16 17 18
24 21 21 20 19 19 18 18 17 17 16 15 15 15 15 15 15 14 14 14 14 14 14 14 14 16 17 17 14 14 15 16
24 22 21 20 20 19 17 16 17 17 16 16 15 15 15 15 15 14 14 14 14 14 14 14 15 16 17 17 18 18 14 13
24 22 21 20 20 19 18 17 17 17 17 16 16 15 14 14 14 15 13 13 13 13 13 13 14 15 17 18 18 18 18 15
24 22 21 20 20 18 18 18 18 17 17 16 15 14 14 14 14 14 13 13 13 13 13 13 14 15 16 17 18 18 18 17
24 22 21 20 20 20 19 20 19 18 16 15 14 13 13 13 13 13 13 13 13 13 13 14 14 14 16 17 18 18 18 18
23 22 22 21 20 20 19 18 18 17 17 15 14 13 13 12 12 13 13 13 13 12 12 13 13 14 16 17 17 17 17 17

GFSFLT2_925_temp_090.txt.gz
Temp
23 23 23 23 22 22 21 21 21 20 20 20 20 20 20 20 20 19 19 19 19 19 19 17 18 19 18 18 18 18 18 17
24 23 23 21 21 21 21 21 21 20 20 20 20 19 19 19 19 19 19 19 19 19 19 18 17 19 18 18 18 18 18 18
23 23 22 21 20 20 20 20 20 20 19 19 19 19 18 19 19 19 19 19 18 19 19 19 16 18 19 17 18 18 18 18
23 23 22 21 20 19 19 20 19 19 19 19 19 19 18 18 18 19 18 18 18 18 19 17 16 17 19 17 18 18 18 18
22 23 23 22 20 19 19 19 19 19 19 19 19 19 18 18 18 17 17 17 17 18 17 17 16 16 18 18 18 18 18 18
23 23 23 22 21 20 20 19 19 19 19 19 19 18 18 18 18 17 17 17 18 16 18 16 16 16 18 18 17 18 18 18
22 22 22 22 21 20 20 20 19 19 19 18 19 19 18 18 18 17 17 16 16 17 17 16 16 16 18 19 18 18 17 18
22 21 22 22 21 20 20 20 20 19 19 18 19 19 18 18 17 16 16 16 16 16 17 17 16 16 18 17 18 18 17 18
22 22 22 21 21 20 20 20 19 19 19 18 18 18 18 17 16 16 16 15 15 15 16 16 16 17 17 15 16 18 17 17
24 22 21 21 21 20 20 19 20 19 19 18 18 18 17 17 16 16 16 16 15 15 15 16 17 17 17 16 15 16 16 16
22 21 21 21 20 20 20 19 20 19 19 18 18 18 17 17 17 17 16 15 16 15 15 16 16 16 16 15 14 15 16 16
23 22 21 19 19 19 19 19 18 19 18 18 18 17 17 17 17 17 16 15 15 15 15 16 16 16 15 14 13 15 16 15
22 20 18 18 17 17 17 17 17 17 18 17 17 17 17 17 17 16 16 15 15 15 14 15 14 15 14 14 13 14 14 15
20 20 19 18 18 17 17 17 17 17 17 17 17 17 18 17 16 16 15 15 14 14 14 14 14 14 14 13 12 12 12 14
19 19 19 17 17 16 17 16 16 16 16 16 16 17 16 16 16 16 15 14 14 14 14 14 14 13 14 13 13 14 13 13
19 18 18 17 17 16 17 16 15 15 15 15 16 16 16 16 16 15 15 14 14 14 14 14 14 13 13 14 14 15 14 12
19 18 17 16 17 17 16 15 15 15 15 15 16 16 15 15 15 15 15 14 14 13 13 14 14 13 14 13 14 15 15 15
18 18 16 16 16 16 16 15 15 15 15 15 15 15 15 14 15 14 15 14 14 14 14 14 13 13 14 14 14 14 15 14
18 17 16 16 16 16 16 17 16 16 15 15 14 14 14 15 15 14 14 14 14 14 14 13 13 13 14 14 15 15 16 16
17 17 16 16 16 15 16 17 16 16 16 15 14 14 16 16 15 15 14 14 13 13 13 13 13 13 13 13 14 15 16 17

GFSFLT2_925_temp_096.txt.gz
Temp
22 22 22 22 22 23 22 22 22 21 21 21 21 20 20 20 20 20 19 19 19 19 19 19 19 19 19 19 18 18 18 18
20 19 20 21 22 22 22 22 21 21 21 20 20 20 20 20 20 19 19 19 19 19 19 19 19 18 19 18 18 19 18 19
18 19 18 20 20 21 21 21 21 21 20 20 20 19 19 19 19 19 19 19 19 19 19 19 19 18 18 18 18 18 18 19
19 18 18 18 20 20 20 20 20 20 20 20 19 19 19 19 19 19 18 19 18 19 19 18 18 17 17 17 18 18 17 18
18 18 20 20 19 19 19 19 20 20 20 19 19 18 18 18 18 18 18 18 18 18 18 17 18 17 17 18 18 18 17 18
20 19 17 20 20 20 19 19 19 20 20 19 19 18 18 18 18 18 18 18 18 17 17 17 17 17 17 17 17 17 17 18
22 21 19 18 19 19 19 19 20 19 19 19 19 18 18 18 17 17 17 17 17 16 16 16 16 17 17 17 17 16 16 17
24 22 22 19 18 18 19 18 19 19 19 18 18 18 18 18 16 16 16 16 16 16 17 15 15 14 15 15 15 15 15 15
25 23 22 21 20 19 19 20 18 19 19 18 18 18 18 17 17 16 16 15 15 16 16 15 15 15 15 16 16 15 14 15
24 23 21 20 20 20 19 20 20 20 19 18 17 17 18 16 16 16 15 15 14 15 15 15 15 15 15 16 15 15 15 14
23 22 20 19 20 19 19 19 19 19 19 18 17 17 17 16 16 16 15 14 14 14 14 14 14 14 14 15 15 15 15 14
22 22 20 19 18 17 17 17 18 19 18 18 17 16 17 17 16 15 14 14 14 14 14 14 14 14 14 14 14 14 14 14
18 21 20 17 18 17 17 17 16 16 17 18 18 17 17 17 16 15 14 14 14 14 14 14 14 14 14 13 13 14 14 14
13 17 20 18 18 17 17 17 17 16 16 16 19 17 18 17 16 15 15 14 14 14 14 14 14 14 14 13 12 12 13 13
10 13 17 18 17 17 17 16 16 16 16 16 16 17 18 17 16 15 15 14 14 14 14 14 14 14 14 14 12 13 12 12
9 10 13 17 17 17 16 17 17 16 16 16 16 16 17 17 16 16 16 14 14 14 14 14 14 14 13 15 15 14 13 12
8 10 12 17 17 17 16 17 17 16 17 22 20 15 17 17 16 16 15 14 14 15 14 14 14 13 14 13 13 13 13 13
7 9 13 16 17 16 16 16 16 15 15 15 14 15 17 16 16 16 15 15 14 14 14 14 13 13 13 14 14 14 12 12
6 8 11 16 17 16 15 16 15 15 15 15 15 14 15 15 16 15 15 15 14 14 14 14 14 13 13 13 13 13 14 14
5 7 9 16 16 16 15 15 15 16 15 14 14 14 14 14 15 14 15 14 14 14 14 14 14 13 13 13 13 13 13 13